Regional Weather Roundup
Issued by NWS Mt. Holly, NJ

Home | Current Version | Previous Version | Text Only | Print | Product List | Glossary On
Versions: 1 2 3 4 5 6 7 8 9 10 11 12 13 14 15 16 17 18 19 20 21 22 23 24 25 26 27 28 29 30 31 32 33 34 35 36 37 38 39 40 41 42 43 44 45 46 47 48 49
000
ASUS41 KPHI 251311
RWRPHI

REGIONAL WEATHER ROUNDUP
NATIONAL WEATHER SERVICE MOUNT HOLLY NJ
900 AM EDT MON MAY 25 2015

NOTE:  "FAIR" INDICATES FEW OR NO CLOUDS BELOW 12,000 FEET WITH NO
SIGNIFICANT WEATHER AND/OR OBSTRUCTIONS TO VISIBILITY.

 * = STATION DOES NOT REPORT PRECIPITATION (E.G. RAIN, SNOW, ETC.)
        OR FOG.

NJZ015>026-251400-
SOUTHERN NEW JERSEY

CITY           SKY/WX    TMP DP  RH WIND       PRES   REMARKS
POMONA         SUNNY     72  59  63 SW9       30.31R
RIO GRANDE*    SUNNY     72  57  60 SW14      30.33R
MILLVILLE      SUNNY     71  60  68 SW8G17    30.31R
WRIGHTSTOWN    PTSUNNY   71  60  69 SW9       30.27S
MOUNT HOLLY    MOSUNNY   72  60  66 VRB3      30.29S
TRENTON        MOSUNNY   69  59  70 SW6       30.28S

$$
NJZ001>014-251400-
NORTHERN NEW JERSEY

CITY           SKY/WX    TMP DP  RH WIND       PRES   REMARKS
SUSSEX         CLOUDY    67  55  65 VRB6      30.28R
ANDOVER*         N/A     67  57  70 CALM      30.27S
MORRISTOWN     PTSUNNY   68  57  68 SW5       30.28R
NEWARK         PTSUNNY   68  57  68 SW6       30.28R
TETERBORO      PTSUNNY   67  55  65 SW8       30.26S
CALDWELL       PTSUNNY   65  55  70 VRB3      30.28R
SOMERVILLE     PTSUNNY   68  57  68 S5        30.27R
ALLAIRE*       MOSUNNY   70  55  60 SW7       30.29S
TOMS RIVER*    MOSUNNY  N/A N/A N/A SW10      30.29S

$$
PAZ043-044-047-054-055-060>062-066>071-251400-
EASTERN PENNSYLVANIA

CITY           SKY/WX    TMP DP  RH WIND       PRES   REMARKS
PHILADELPHIA   MOSUNNY   73  59  61 SW12      30.30R
NORTH PHILA    SUNNY     73  57  57 SW9       30.30S
BLUE BELL      SUNNY     73  61  64 SW8       30.28S
DOYLESTOWN     MOSUNNY   68  58  70 VRB5      30.28R
QUAKERTOWN*    PTSUNNY   68  59  73 SW6       30.29S
POTTSTOWN      PTSUNNY   68  60  75 S6        30.29S
LANCASTER      SUNNY     71  59  65 SW5       30.27S
COATESVILLE    SUNNY     70  61  73 SW5       30.30R
READING        SUNNY     72  58  61 S5        30.26S
ALLENTOWN      PTSUNNY   69  57  65 S3        30.27S
MOUNT POCONO   CLOUDY    67  54  63 SW9       30.29R
HAZLETON       CLOUDY    68  55  64 S7        30.31R
WILKES BARRE   CLOUDY    72  54  53 SW8       30.24S

$$
DEZALL-MDZ008-012-015-019-020-251400-
DELAWARE AND EASTERN MARYLAND

CITY           SKY/WX    TMP DP  RH WIND       PRES   REMARKS
WILMINGTON     SUNNY     71  60  68 SW7       30.30R
DOVER          SUNNY     72  63  72 SW12      30.28R
GEORGETOWN     SUNNY     73  60  63 SW12      30.33R
EASTON         SUNNY     73  61  64 SW12G23   30.34R
PATUXENT       SUNNY     73  58  59 SW13G22   30.32R
OCEAN CITY     SUNNY     72  61  68 SW12      30.34R
WALLOPS ISLAND SUNNY     73  61  65 SW13      30.35R
CAMBRIDGE      SUNNY     72  57  60 SW12      30.31S
SALISBURY      SUNNY     73  60  63 SW12G22   30.33R

$$
PAZ001-021-NYZ056-072-MDZ011-DCZ001-251400-
OTHER NEARBY LOCATIONS

CITY           SKY/WX    TMP DP  RH WIND       PRES   REMARKS
HARRISBURG     SUNNY     72  59  63 E5        30.25F
STATE COLLEGE  SUNNY     68  54  60 CALM      30.25S
WILLIAMSPORT   MOSUNNY   68  54  60 CALM      30.22F
BINGHAMTON     CLOUDY    62  52  69 S6        30.23S
NEW YORK CITY  CLOUDY    71  56  58 W6        30.30S
BALTIMORE      MOSUNNY   71  59  65 SW9       30.28S
WASHINGTON DC  PTSUNNY   74  59  59 SW12      30.29S

$$


USA.gov is the U.S. government's official web portal to all federal, state and local government web resources and services.